Location: Newark
(45.8667°N, 9.7333°E)
Time: 13:34:32
(UTC+00:00)

Vanguard 2 Rocket - Pass Details

Date: 03 February 2020
Orbit: 553 x 3327 km, 32.9° (Epoch: 24 February)

Event Time Altitude Azimuth Distance (km) Brightness Sun altitude
Rises 03:08:55 0° 237° (WSW) 2,838 - -37.1°
Reaches altitude 10° 03:12:10 10° 210° (SSW) 1,829 - -36.5°
Maximum altitude 03:14:16 14° 177° (S) 1,586 - -36.2°
Drops below altitude 10° 03:16:25 10° 144° (SE) 1,871 - -35.8°
Exits shadow 03:17:41 - 132° (SE) 2,224 9.3 -35.6°
Sets 03:19:48 0° 118° (ESE) 2,957 10.1 -35.2°
